Weather in Buscha

Ukraine / Rovno District     50°18′55″N   26°14′29″E
temp.,
°C
wind,
m/s
gust,
m/s
humid.,
%
clouds,
%
prec.,
mm/h
press.,
hPa
HPBL,
m
17 april, sat
sat1700:00+1wsw4999100 0.8 1016333
03:00+1w4899100 0.8 1017319
06:00+2w4798100 0.2 1017326
09:00+2w4897100 0.3 1018285
12:00+3w4796100 0.0 1019371
15:00+4wnw4595100 0.1 1020362
18:00+5wnw2493100 0.1 1020295
21:00+4wnw129497 0.1 102036
18 april, sun
sun1800:00+4wnw239493 0.0 102097
03:00+4wnw249279 0.0 1020105
06:00+3w22927 0.0 101939
09:00+6w23815 0.0 1019324
12:00+10wnw336461 0.0 1017907
15:00+13nw345399 0.0 10161537
18:00+9nne4782100 0.0 1017349
21:00+8ene3691100 0.0 1018429
19 april, mon
mon1900:00+6ene3689100 0.0 1018260
03:00+4ene2391100 0.0 101861
06:00+3ne249299 0.0 101867
09:00+6ne3579100 0.0 1018419
12:00+8ene4568100 0.0 10171042
15:00+8ene5565100 0.0 10161050
18:00+8ne2570100 0.0 1015543
21:00+6nne3880100 0.1 1015313
20 april, tue
tue2000:00+6n2580100 0.0 1014162
03:00+5n3687100 0.1 1012198
06:00+5n4895100 0.2 1011291
09:00+6nnw4895100 0.4 1010489
12:00+8n677890 0.5 1009884
15:00+9nnw787277 1.0 10081129
18:00+8nnw7107920 0.4 1008863
21:00+6nnw61087100 0.5 1009747
21 april, wed
wed2100:00+5wnw4993100 0.0 1009378
03:00+5wnw51288100 0.0 1010428
06:00+5w51187100 0.0 1011383
09:00+7w5979100 0.1 1012769
12:00+9wnw685836 0.0 10131383
15:00+11wnw5850100 0.1 10131951
18:00+11w566094 0.2 10141200
21:00+7w338377 0.6 101634